Tracking 29892 objects as of 21-Nov-2024
HD Live streaming from Space Station
objects crossing your sky now

ELECTRON KICK STAGE R/B

Track ELECTRON KICK STAGE R/B now!
10-day predictions


NORAD ID: 59967
Int'l Code: 2024-108C
Perigee: 417.1 km
Apogee: 465.0 km
Inclination: 97.4 °
Period: 93.3 minutes
Semi major axis: 6812 km
RCS: Unknown
Launch date: June 5, 2024
Source: United States (US)
Launch site: Rocket Lab Launch Complex (RLLC)

Note: This is a ROCKET BODY
Your satellite tracking list
Your tracking list is empty




NASA's NSSDC Master Catalog

Two Line Element Set (TLE):
1 59967U 24108C   24325.86628853  .00074619  00000-0  15820-2 0  9998
2 59967  97.4473 117.8128 0035133 144.8133 215.5445 15.44138784 25827
Source of the keplerian elements: AFSPC